Вернуться в каталог

STARLINK-37346

АктивенСвязьVLEO
NORAD 69149·PAYLOAD·🇺🇸 United States

Запущен May 21, 2026 с Cape Canaveral Space Force Station

Loading…

Ближайшие Пролёты (ближайшие 24 часа)

TLE

СвежийSource: CelesTrak SupGP

Эпоха: Sep 15, 2026, 03:21 UTC

1 69149C 26111B   26258.14006944 -.00021526  00000+0 -63651-3 0  2580
2 69149  53.1571  91.1161 0001247  83.4649 194.2153 15.34375749    14

Отслеживайте STARLINK-37346 в реальном времени с AllMySat

Download on the App Store